• In Uzbekistan
  • List of Countries
  • For 7 days
  • Water Temperature
  • Satellite Maps
  • Weather Map
  • Weather Widgets
  • user-avatar
    Login

    Hourly Weather Nizhnyj Tagil

    Today, 18 July, Thursday

    Time Temperature Precipitation Wind Pressure Humidity
    00:00 +13°C° 0 mm 1 mps 732 mmHg 80%
    01:00 +12°C° 0 mm 1 mps 732 mmHg 83%
    02:00 +12°C° 0 mm 1 mps 732 mmHg 84%
    03:00 +12°C° 0 mm 1 mps 732 mmHg 85%
    04:00 +11°C° 0 mm 1 mps 732 mmHg 88%
    05:00 +13°C° 0 mm 2 mps 732 mmHg 80%
    06:00 +15°C° 0 mm 2 mps 732 mmHg 71%
    07:00 +18°C° 0 mm 2 mps 733 mmHg 62%
    08:00 +19°C° 0 mm 2 mps 732 mmHg 56%
    09:00 +21°C° 0 mm 3 mps 732 mmHg 50%
    10:00 +22°C° 0 mm 3 mps 732 mmHg 44%
    11:00 +24°C° 0 mm 3 mps 732 mmHg 42%
    12:00 +25°C° 0 mm 3 mps 732 mmHg 39%
    13:00 +26°C° 0 mm 3 mps 732 mmHg 37%
    14:00 +26°C° 0 mm 3 mps 732 mmHg 37%
    15:00 +26°C° 0 mm 3 mps 732 mmHg 37%
    16:00 +26°C° 0 mm 2 mps 732 mmHg 37%
    17:00 +25°C° 0 mm 2 mps 731 mmHg 44%
    18:00 +24°C° 0 mm 1 mps 731 mmHg 52%
    19:00 +23°C° 0 mm 1 mps 731 mmHg 59%
    20:00 +20°C° 0 mm 1 mps 731 mmHg 63%
    21:00 +18°C° 0 mm 1 mps 731 mmHg 67%
    22:00 +14°C° 0 mm 0 mps 731 mmHg 71%
    23:00 +14°C° 0 mm 0 mps 731 mmHg 70%

    Tomorrow, 19 July, Friday

    Time Temperature Precipitation Wind Pressure Humidity
    00:00 +13°C° 0 mm 0 mps 731 mmHg 70%
    01:00 +13°C° 0 mm 0 mps 731 mmHg 70%
    02:00 +12°C° 0 mm 0 mps 731 mmHg 70%
    03:00 +12°C° 0 mm 0 mps 731 mmHg 70%
    04:00 +12°C° 0 mm 0 mps 731 mmHg 71%
    05:00 +15°C° 0 mm 1 mps 731 mmHg 66%
    06:00 +18°C° 0 mm 1 mps 731 mmHg 61%
    07:00 +20°C° 0 mm 1 mps 731 mmHg 56%
    08:00 +22°C° 0 mm 1 mps 731 mmHg 54%
    09:00 +24°C° 0 mm 1 mps 731 mmHg 52%
    10:00 +26°C° 0 mm 2 mps 731 mmHg 50%
    11:00 +28°C° 0 mm 1 mps 731 mmHg 47%
    12:00 +30°C° 0 mm 1 mps 731 mmHg 43%
    13:00 +31°C° 0 mm 1 mps 730 mmHg 40%
    14:00 +31°C° 0 mm 1 mps 730 mmHg 39%
    15:00 +31°C° 0 mm 1 mps 730 mmHg 38%
    16:00 +31°C° 0 mm 2 mps 730 mmHg 37%
    17:00 +30°C° 0 mm 2 mps 730 mmHg 45%
    18:00 +28°C° 0 mm 2 mps 730 mmHg 53%
    19:00 +27°C° 0 mm 2 mps 730 mmHg 61%
    20:00 +25°C° 0.5 mm 1 mps 730 mmHg 70%
    21:00 +22°C° 0.5 mm 1 mps 730 mmHg 80%
    22:00 +18°C° 0.5 mm 0 mps 730 mmHg 89%
    23:00 +18°C° 0.2 mm 0 mps 730 mmHg 90%

    Day after tomorrow, 20 July, Saturday

    Time Temperature Precipitation Wind Pressure Humidity
    00:00 +18°C° 0.2 mm 0 mps 730 mmHg 91%
    01:00 +18°C° 0.2 mm 0 mps 730 mmHg 92%
    02:00 +17°C° 0.4 mm 0 mps 730 mmHg 94%
    03:00 +17°C° 0.4 mm 0 mps 730 mmHg 95%
    04:00 +19°C° 0.4 mm 1 mps 730 mmHg 96%
    05:00 +20°C° 0.2 mm 1 mps 730 mmHg 95%
    06:00 +21°C° 0.2 mm 1 mps 731 mmHg 93%
    07:00 +22°C° 0.2 mm 1 mps 731 mmHg 92%
    08:00 +23°C° 0.3 mm 1 mps 731 mmHg 90%
    09:00 +23°C° 0.3 mm 2 mps 731 mmHg 88%
    10:00 +24°C° 0.3 mm 2 mps 731 mmHg 86%
    11:00 +24°C° 0.2 mm 2 mps 731 mmHg 82%
    12:00 +25°C° 0.2 mm 2 mps 731 mmHg 78%
    13:00 +25°C° 0.2 mm 2 mps 731 mmHg 74%
    14:00 +25°C° 0 mm 3 mps 731 mmHg 73%
    15:00 +25°C° 0 mm 3 mps 731 mmHg 72%
    16:00 +25°C° 0 mm 3 mps 731 mmHg 71%
    17:00 +24°C° 0 mm 2 mps 731 mmHg 73%
    18:00 +24°C° 0 mm 2 mps 731 mmHg 76%
    19:00 +23°C° 0 mm 2 mps 731 mmHg 78%
    20:00 +21°C° 0 mm 2 mps 731 mmHg 81%
    21:00 +22°C° 0 mm 1 mps 731 mmHg 85%
    22:00 +21°C° 0 mm 1 mps 731 mmHg 88%
    23:00 +20°C° 0 mm 1 mps 730 mmHg 91%

    21 July, Sunday

    Time Temperature Precipitation Wind Pressure Humidity
    00:00 +19°C° 0 mm 1 mps 730 mmHg 93%
    01:00 +18°C° 0 mm 1 mps 730 mmHg 96%
    02:00 +18°C° 0.1 mm 1 mps 729 mmHg 96%
    03:00 +18°C° 0.1 mm 1 mps 729 mmHg 95%
    04:00 +18°C° 0.1 mm 1 mps 729 mmHg 95%
    05:00 +17°C° 0.9 mm 2 mps 729 mmHg 95%
    06:00 +17°C° 0.9 mm 2 mps 729 mmHg 95%
    07:00 +17°C° 0.9 mm 2 mps 729 mmHg 95%
    08:00 +19°C° 0.3 mm 2 mps 729 mmHg 90%
    09:00 +20°C° 0.3 mm 2 mps 729 mmHg 84%
    10:00 +21°C° 0.3 mm 2 mps 728 mmHg 79%
    11:00 +24°C° 0.2 mm 2 mps 728 mmHg 69%
    12:00 +25°C° 0.2 mm 3 mps 728 mmHg 60%
    13:00 +26°C° 0.2 mm 3 mps 728 mmHg 50%
    14:00 +26°C° 0 mm 3 mps 728 mmHg 50%
    15:00 +26°C° 0 mm 3 mps 728 mmHg 50%
    16:00 +26°C° 0 mm 4 mps 728 mmHg 50%
    17:00 +25°C° 0 mm 3 mps 727 mmHg 57%
    18:00 +24°C° 0 mm 3 mps 727 mmHg 63%
    19:00 +23°C° 0 mm 2 mps 727 mmHg 70%
    20:00 +20°C° 0 mm 2 mps 727 mmHg 77%
    21:00 +18°C° 0 mm 2 mps 727 mmHg 85%
    22:00 +17°C° 0 mm 2 mps 726 mmHg 93%
    23:00 +16°C° 0 mm 2 mps 726 mmHg 94%

    22 July, Monday

    Time Temperature Precipitation Wind Pressure Humidity
    00:00 +16°C° 0 mm 2 mps 726 mmHg 96%
    01:00 +15°C° 0 mm 2 mps 726 mmHg 97%
    02:00 +15°C° 0 mm 2 mps 726 mmHg 97%
    03:00 +14°C° 0 mm 2 mps 726 mmHg 97%
    04:00 +14°C° 0 mm 2 mps 726 mmHg 98%
    05:00 +16°C° 0 mm 2 mps 726 mmHg 92%
    06:00 +17°C° 0 mm 2 mps 726 mmHg 86%
    07:00 +18°C° 0 mm 2 mps 726 mmHg 81%
    08:00 +20°C° 0 mm 3 mps 726 mmHg 73%
    09:00 +21°C° 0 mm 3 mps 726 mmHg 64%
    10:00 +24°C° 0 mm 3 mps 725 mmHg 56%
    11:00 +24°C° 0.3 mm 3 mps 725 mmHg 59%
    12:00 +24°C° 0.3 mm 3 mps 725 mmHg 62%
    13:00 +24°C° 0.3 mm 3 mps 725 mmHg 64%
    14:00 +24°C° 0.7 mm 3 mps 725 mmHg 65%
    15:00 +24°C° 0.7 mm 3 mps 725 mmHg 65%
    16:00 +24°C° 0.7 mm 3 mps 725 mmHg 66%
    17:00 +22°C° 0.6 mm 3 mps 725 mmHg 72%
    18:00 +21°C° 0.6 mm 2 mps 725 mmHg 77%
    19:00 +20°C° 0.6 mm 2 mps 725 mmHg 83%
    20:00 +18°C° 0.1 mm 2 mps 725 mmHg 86%
    21:00 +17°C° 0.1 mm 2 mps 725 mmHg 90%
    22:00 +16°C° 0.1 mm 2 mps 725 mmHg 94%
    23:00 +15°C° 0 mm 2 mps 725 mmHg 95%

    23 July, Tuesday

    Time Temperature Precipitation Wind Pressure Humidity
    00:00 +15°C° 0 mm 2 mps 725 mmHg 95%
    01:00 +14°C° 0 mm 1 mps 724 mmHg 96%
    02:00 +14°C° 0 mm 1 mps 724 mmHg 96%
    03:00 +14°C° 0 mm 1 mps 724 mmHg 96%
    04:00 +14°C° 0 mm 1 mps 725 mmHg 97%
    05:00 +15°C° 0.1 mm 2 mps 725 mmHg 94%
    06:00 +16°C° 0.1 mm 2 mps 725 mmHg 92%
    07:00 +17°C° 0.1 mm 2 mps 725 mmHg 89%
    08:00 +19°C° 0.3 mm 2 mps 725 mmHg 84%
    09:00 +20°C° 0.3 mm 2 mps 726 mmHg 78%
    10:00 +21°C° 0.3 mm 3 mps 726 mmHg 72%
    11:00 +22°C° 0.3 mm 3 mps 726 mmHg 70%
    12:00 +24°C° 0.3 mm 3 mps 726 mmHg 67%
    13:00 +24°C° 0.3 mm 3 mps 727 mmHg 65%
    14:00 +24°C° 0.9 mm 3 mps 727 mmHg 70%
    15:00 +22°C° 0.9 mm 3 mps 727 mmHg 76%
    16:00 +22°C° 0.9 mm 3 mps 727 mmHg 82%
    17:00 +21°C° 1 mm 2 mps 727 mmHg 86%
    18:00 +20°C° 1 mm 2 mps 727 mmHg 89%
    19:00 +20°C° 1 mm 2 mps 727 mmHg 92%
    20:00 +19°C° 0.3 mm 2 mps 728 mmHg 93%
    21:00 +18°C° 0.3 mm 2 mps 728 mmHg 94%
    22:00 +17°C° 0.3 mm 2 mps 728 mmHg 95%
    23:00 +16°C° 0 mm 2 mps 728 mmHg 96%
    Show more